This is the latest recevied weather packets stored in our database for station/object KA3ZXO. If no packets are shown the sender has not sent any weather packets the latest 10 day(s).
| Time | Temp. | Humidity | Pressure | Rain* | Wind** | Luminosity | Snow |
|---|---|---|---|---|---|---|---|
| 1777905381 | 17.78° C | 46% | 1014.4 hPa | 0 mm | - | 194 W/m² | - |
| 1777904782 | 17.22° C | 44% | 1014.4 hPa | 0 mm | - | 26 W/m² | - |
| 1777904181 | 16.67° C | 47% | 1014.5 hPa | 0 mm | - | 26 W/m² | - |
| 1777903581 | 16.11° C | 51% | 1014.5 hPa | 0 mm | - | 25 W/m² | - |
| 1777902979 | 16.11° C | 51% | 1014.5 hPa | 0 mm | - | 25 W/m² | - |
| 1777902379 | 15.56° C | 50% | 1014.5 hPa | 0 mm | - | 24 W/m² | - |
| 1777901774 | 15° C | 53% | 1014.7 hPa | 0 mm | - | 24 W/m² | - |
| 1777901175 | 15° C | 52% | 1014.6 hPa | 0 mm | - | 23 W/m² | - |
| 1777900569 | 14.44° C | 52% | 1014.8 hPa | 0 mm | - | 23 W/m² | - |
| 1777899969 | 14.44° C | 54% | 1014.7 hPa | 0 mm | - | 22 W/m² | - |
| 1777899363 | 13.89° C | 55% | 1015 hPa | 0 mm | - | 21 W/m² | - |
| 1777898763 | 13.33° C | 58% | 1015.1 hPa | 0 mm | - | 20 W/m² | - |
| 1777898158 | 13.33° C | 59% | 1015.2 hPa | 0 mm | - | 20 W/m² | - |
| 1777897557 | 13.33° C | 60% | 1015.1 hPa | 0 mm | - | 18 W/m² | - |
| 1777896955 | 12.78° C | 60% | 1015.1 hPa | 0 mm | - | 17 W/m² | - |
| 1777896355 | 12.78° C | 61% | 1015.3 hPa | 0 mm | - | 24 W/m² | - |
| 1777895750 | 12.22° C | 63% | 1015.4 hPa | 0 mm | - | 34 W/m² | - |
| 1777895145 | 12.22° C | 64% | 1015.4 hPa | 0 mm | - | 25 W/m² | - |
| 1777894544 | 12.22° C | 65% | 1015.4 hPa | 0 mm | - | 24 W/m² | - |
| 1777893939 | 11.67° C | 66% | 1015.8 hPa | 0 mm | - | 30 W/m² | - |
| 1777893337 | 11.67° C | 65% | 1015.6 hPa | 0 mm | - | 11 W/m² | - |
| 1777892737 | 11.11° C | 67% | 1015.7 hPa | 0 mm | - | 14 W/m² | - |
| 1777892134 | 11.11° C | 67% | 1015.5 hPa | 0 mm | - | 9 W/m² | - |
| 1777891534 | 11.67° C | 66% | 1015.6 hPa | 0 mm | - | 9 W/m² | - |
| 1777890930 | 11.11° C | 68% | 1015.7 hPa | 0 mm | - | 6 W/m² | - |
* Rain latest hour (hover to see other rain measurements)
** Current wind speed in m/s (hover to see current wind gust speed)